Lordsburg, NM

2:40 AM MDT on August 17, 2017 (GMT -0600)
Lordsburg

Weather History for KLSB - November, 2013

Change the Weather History Date:

Wednesday, November 27, 2013

  Actual Average Record
Temperature  
Mean Temperature 40 °F -  
Max Temperature 46 °F 60 °F 69 °F (2015)
Min Temperature 32 °F 25 °F 28 °F (2014)
Degree Days  
Heating Degree Days 26    
Moisture  
Dew Point 24 °F    
Average Humidity 54    
Maximum Humidity 81    
Minimum Humidity 39    
Precipitation  
Precipitation 0.00 in - - ()
Sea Level Pressure  
Sea Level Pressure 30.25 in    
Wind  
Wind Speed 17 mph (ESE)    
Max Wind Speed 26 mph    
Max Gust Speed 36 mph    
Visibility 10 miles    
Events      
Averages and records for this station are not official NWS values.
T = Trace of Precipitation, MM = Missing Value Source: NWS Daily Summary

Daily Weather History Graph

Daily Weather History Graph

Search for Another Location

Airport or City:

Trip Planner

Search our weather history database for the weather conditions in past years. The results will help you decide how hot, cold, wet, or windy it might be!

Date:

Astronomy

Nov. 27, 2013 Rise Set
Actual Time 6:59 AM MST 5:05 PM MST
Civil Twilight 6:32 AM MST 5:32 PM MST
Nautical Twilight 6:01 AM MST 6:03 PM MST
Astronomical Twilight 5:31 AM MST 6:33 PM MST
Moon 1:18 AM MST (11/27) 1:31 PM MST (11/27)
Length of Visible Light 11h 00m
Length of Day
10h 05m
Waning Crescent, 31% of the Moon is Illuminated
Nov 27
Waning Crescent
Dec 2
New
Dec 9
First Quarter
Dec 17
Full
Dec 25
Last Quarter

Hourly Weather History & Observations

Time (MST) Temp. Windchill Dew Point Humidity Pressure Visibility Wind Dir Wind Speed Gust Speed Precip Events Conditions
12:15 AM 33.8 °F 26.4 °F 28.4 °F 81% 30.36 in 10.0 mi SE 9.2 mph - N/A   Clear
12:35 AM 33.8 °F - 26.6 °F 75% 30.36 in 10.0 mi North - - N/A   Clear
12:55 AM 33.8 °F - 26.6 °F 75% 30.35 in 10.0 mi North - - N/A   Clear
1:15 AM 33.8 °F - 26.6 °F 75% 30.35 in 10.0 mi North - - N/A   Clear
1:55 AM 33.8 °F - 26.6 °F 75% 30.33 in 10.0 mi North - - N/A   Clear
3:15 AM 35.6 °F - 24.8 °F 65% 30.32 in 10.0 mi North - - N/A   Clear
3:35 AM 35.6 °F - 24.8 °F 65% 30.32 in 10.0 mi North - - N/A   Clear
3:55 AM 37.4 °F - 23.0 °F 56% 30.31 in 10.0 mi North - - N/A   Clear
4:15 AM 37.4 °F 27.8 °F 23.0 °F 56% 30.31 in 10.0 mi East 17.3 mph 21.9 mph N/A   Clear
4:35 AM 35.6 °F - 23.0 °F 60% 30.31 in 10.0 mi North - - N/A   Clear
4:55 AM 37.4 °F - 23.0 °F 56% 30.31 in 10.0 mi North - - N/A   Clear
5:15 AM 37.4 °F 28.2 °F 23.0 °F 56% 30.31 in 10.0 mi East 16.1 mph - N/A   Clear
5:35 AM 37.4 °F - 23.0 °F 56% 30.32 in 10.0 mi North - - N/A   Clear
5:55 AM 35.6 °F - 23.0 °F 60% 30.31 in 10.0 mi North - - N/A   Clear
6:35 AM 33.8 °F - 24.8 °F 70% 30.31 in 10.0 mi North - - N/A   Clear
6:55 AM 35.6 °F - 23.0 °F 60% 30.31 in 10.0 mi North - - N/A   Clear
7:15 AM 37.4 °F - 23.0 °F 56% 30.32 in 10.0 mi North - - N/A   Clear
7:35 AM 37.4 °F - 23.0 °F 56% 30.32 in 10.0 mi North - - N/A   Clear
7:55 AM 37.4 °F - 23.0 °F 56% 30.32 in 10.0 mi North - - N/A   Clear
8:15 AM 37.4 °F - 24.8 °F 60% 30.33 in 10.0 mi North - - N/A   Clear
8:35 AM 37.4 °F - 24.8 °F 60% 30.33 in 10.0 mi North - - N/A   Clear
8:55 AM 39.2 °F - 23.0 °F 52% 30.33 in 10.0 mi North - - N/A   Clear
9:15 AM 41.0 °F - 23.0 °F 49% 30.32 in 10.0 mi North - - N/A   Clear
9:35 AM 42.8 °F 33.8 °F 23.0 °F 46% 30.32 in 10.0 mi East 21.9 mph 28.8 mph N/A   Clear
9:55 AM 42.8 °F 33.3 °F 23.0 °F 46% 30.32 in 10.0 mi East 24.2 mph 28.8 mph N/A   Clear
10:35 AM 42.8 °F 33.3 °F 21.2 °F 42% 30.30 in 10.0 mi ESE 24.2 mph 32.2 mph N/A   Clear
10:55 AM 44.6 °F 35.7 °F 21.2 °F 39% 30.29 in 10.0 mi East 24.2 mph 35.7 mph N/A   Clear
11:15 AM 44.6 °F 35.3 °F 23.0 °F 43% 30.28 in 10.0 mi East 26.5 mph 33.4 mph N/A   Clear
11:35 AM 44.6 °F 35.5 °F 21.2 °F 39% 30.26 in 10.0 mi ESE 25.3 mph 32.2 mph N/A   Clear
11:55 AM 44.6 °F 35.7 °F 23.0 °F 43% 30.25 in 10.0 mi ESE 24.2 mph 31.1 mph N/A   Clear
12:15 PM 44.6 °F 35.9 °F 23.0 °F 43% 30.25 in 10.0 mi ESE 23.0 mph 32.2 mph N/A   Clear
12:35 PM 44.6 °F 36.1 °F 23.0 °F 43% 30.24 in 10.0 mi ESE 21.9 mph 29.9 mph N/A   Clear
12:55 PM 44.6 °F 36.4 °F 23.0 °F 43% 30.23 in 10.0 mi ESE 20.7 mph 29.9 mph N/A   Clear
1:15 PM 44.6 °F 35.9 °F 23.0 °F 43% 30.21 in 10.0 mi ESE 23.0 mph 28.8 mph N/A   Clear
1:35 PM 44.6 °F 36.4 °F 23.0 °F 43% 30.21 in 10.0 mi ESE 20.7 mph 27.6 mph N/A   Clear
1:55 PM 44.6 °F 36.6 °F 23.0 °F 43% 30.19 in 10.0 mi ESE 19.6 mph 27.6 mph N/A   Clear
2:15 PM 44.6 °F 36.6 °F 23.0 °F 43% 30.19 in 10.0 mi ESE 19.6 mph 25.3 mph N/A   Clear
2:35 PM 44.6 °F 36.4 °F 23.0 °F 43% 30.18 in 10.0 mi East 20.7 mph 28.8 mph N/A   Clear
2:55 PM 46.4 °F 38.7 °F 23.0 °F 40% 30.17 in 10.0 mi ESE 20.7 mph 29.9 mph N/A   Clear
3:15 PM 44.6 °F 35.7 °F 23.0 °F 43% 30.17 in 10.0 mi East 24.2 mph 29.9 mph N/A   Clear
3:35 PM 46.4 °F 38.5 °F 23.0 °F 40% 30.17 in 10.0 mi ESE 21.9 mph 27.6 mph N/A   Clear
3:55 PM 44.6 °F 36.9 °F 23.0 °F 43% 30.17 in 10.0 mi ESE 18.4 mph 26.5 mph N/A   Clear
4:15 PM 44.6 °F 37.8 °F 23.0 °F 43% 30.18 in 10.0 mi ESE 15.0 mph 25.3 mph N/A   Clear
4:35 PM 44.6 °F 38.1 °F 23.0 °F 43% 30.18 in 10.0 mi East 13.8 mph 24.2 mph N/A   Clear
4:55 PM 44.6 °F 37.2 °F 23.0 °F 43% 30.18 in 10.0 mi East 17.3 mph 23.0 mph N/A   Clear
5:15 PM 42.8 °F 35.8 °F 23.0 °F 46% 30.18 in 10.0 mi East 13.8 mph 21.9 mph N/A   Clear
5:35 PM 42.8 °F 35.4 °F 23.0 °F 46% 30.18 in 10.0 mi East 15.0 mph 19.6 mph N/A   Clear
5:55 PM 41.0 °F 32.8 °F 23.0 °F 49% 30.18 in 10.0 mi East 16.1 mph 23.0 mph N/A   Clear
6:15 PM 41.0 °F 33.9 °F 23.0 °F 49% 30.18 in 10.0 mi East 12.7 mph - N/A   Clear
6:35 PM 41.0 °F 34.3 °F 23.0 °F 49% 30.19 in 10.0 mi East 11.5 mph - N/A   Clear
6:55 PM 39.2 °F 32.5 °F 23.0 °F 52% 30.19 in 10.0 mi East 10.4 mph - N/A   Clear
7:15 PM 39.2 °F 33.0 °F 24.8 °F 56% 30.19 in 10.0 mi ESE 9.2 mph - N/A   Clear
7:35 PM 39.2 °F 32.0 °F 24.8 °F 56% 30.19 in 10.0 mi ESE 11.5 mph - N/A   Clear
7:55 PM 39.2 °F 31.2 °F 24.8 °F 56% 30.19 in 10.0 mi East 13.8 mph 17.3 mph N/A   Clear
8:15 PM 39.2 °F 32.5 °F 23.0 °F 52% 30.20 in 10.0 mi East 10.4 mph - N/A   Clear
8:35 PM 39.2 °F 32.0 °F 23.0 °F 52% 30.19 in 10.0 mi East 11.5 mph 17.3 mph N/A   Clear
8:55 PM 37.4 °F 30.8 °F 23.0 °F 56% 30.19 in 10.0 mi ESE 9.2 mph - N/A   Clear
9:15 PM 37.4 °F 31.4 °F 23.0 °F 56% 30.19 in 10.0 mi ESE 8.1 mph - N/A   Clear
9:35 PM 37.4 °F 32.1 °F 23.0 °F 56% 30.19 in 10.0 mi SSE 6.9 mph - N/A   Clear
9:55 PM 33.8 °F 27.7 °F 24.8 °F 70% 30.19 in 10.0 mi SSE 6.9 mph - N/A   Clear
10:15 PM 35.6 °F 29.9 °F 23.0 °F 60% 30.19 in 10.0 mi SE 6.9 mph - N/A   Clear
10:35 PM 33.8 °F - 24.8 °F 70% 30.20 in 10.0 mi North - - N/A   Clear
10:55 PM 33.8 °F 27.7 °F 24.8 °F 70% 30.20 in 10.0 mi SSE 6.9 mph - N/A   Clear
11:15 PM 33.8 °F - 24.8 °F 70% 30.20 in 10.0 mi North - - N/A   Clear
11:35 PM 33.8 °F 27.7 °F 24.8 °F 70% 30.20 in 10.0 mi SSE 6.9 mph - N/A   Clear
11:55 PM 32.0 °F 24.8 °F 24.8 °F 75% 30.19 in 10.0 mi SSE 8.1 mph - N/A   Clear